Probability
0 0 0 0 0 0 0 0 0 0 0 0 0 0 0 0 0 0 0 0 0 0 0 0 0 0 0 0 0 0 0 0 0 0 0 0 0 0 0 0 0 0 0 0
0 0 0 0 0 0 0 0 0 0 0 0 0 0 0 0 0 0 0 0 0 0 0 0 0 0 0 0 0 0 0 0 0 0 0 0 0 0 0 0 0 0 0 0
0 0 0 0 0 0 0 0 0 0 0 0 0 0 0 0 0 0 0 0 0 0 0 0 0 0 0 0 0 0 0 0 0 0 0 0 0 0 0 0 0 0 0 0
0 0 0 0 0 0 0 0 0 0 0 0 0 0 0 0 0 0 0 0 0 0 0 0 0 0 0 0 0 0 0 0 0 0 0 0 0 0 0 0 0 0 0 0
0 0 0 0 0 0 0 0 0 0 0 0 0 0 0 0 0 0 0 0 0 0 0 0 0 0 0 0 0 0 0 0 0 0 0 0 0 0 0 0 0 0 0 0
0 0 0 0 0 0 0 0 0 0 0 0 0 0 0 0 0 0 0 0 0 0 0 0 0 0 0 0 0 0 0 0 0 0 0 0 0 0 0 0 0 0 0 0
0 0 0 0 0 0 0 0 0 0 0 0 0 0 0 0 0 0 0 0 0 0 0 0 0 0 0 0 0 0 0 0 0 0 0 0 0 0 0 0 0 0 0 0
0 0 0 0 0 0 0 0 0 0 0 0 0 0 0 0 0 0 0 0 0 0 0 0 0 0 0 0 0 0 0 0 0 0 0 0 0 0 0 0 0 0 0 0
0 0 0 0 0 0 0 0 0 0 0 0 0 0 0 0 0 0 0 0 0 0 0 0 0 0 0 0 0 0 0 0 0 0 0 0 0 0 0 0 0 0 0 0
0 0 0 0 0 0 0 0 0 0 0 0 0 0 0 0 0 0 0 0 0 0 0 0 0 0 0 0 0 0 0 0 0 0 0 0 0 0 0 0 0 0 0 0
0 0 0 0 0 0 0 0 0 0 0 0 0 0 0 0 0 0 0 0 0 0 0 0 0 0 0 0 0 0 0 0 0 0 0 0 0 0 0 0 0 0 0 0
0 0 0 0 0 0 0 0 0 0 0 0 0 0 0 0 0 0 0 0 0 0 0 0 0 0 0 0 0 0 0 0 0 0 0 0 0 0 0 0 0 0 0 0
0 0 0 0 0 0 0 0 0 0 0 0 0 0 0 0 0 0 0 0 0 0 0 0 0 0 0 0 0 0 0 0 0 0 0 0 0 0 0 0 0 0 0 0
0 0 0 0 0 0 0 0 0 0 0 0 0 0 0 0 0 0 0 0 0 0 0 0 0 0 0 0 0 0 0 0 0 0 0 0 0 0 0 0 0 0 0 0
0 0 0 0 0 0 0 0 0 0 0 0 0 0 0 0 0 0 0 0 0 0 0 0 0 0 0 0 0 0 0 0 0 0 0 0 0 0 0 0 0 0 0 0
0 0 0 0 0 0 0 0 0 0 0 0 0 0 0 0 0 0 0 0 0 0 0 0 0 0 0 0 0 0 0 0 0 0 0 0 0 0 0 0 0 0 0 0
0 0 0 0 0 0 0 0 0 0 0 0 0 0 0 0 0 0 0 0 0 0 0 0 0 0 0 0 0 0 0 0 0 0 0 0 0 0 0 0 0 0 0 0
0 0 0 0 0 0 0 0 0 0 0 0 0 0 0 0 0 0 0 0 0 0 0 0 0 0 0 0 0 0 0 0 0 0 0 0 0 0 0 0 0 0 0 0
0 0 0 0 0 0 0 0 0 0 0 0 0 0 0 0 0 0 0 0 0 0 0 0 0 0 0 0 0 0 0 0 0 0 0 0 0 0 0 0 0 0 0 0
0 0 0 0 0 0 0 0 0 0 0 0 0 0 0 0 0 0 0 0 0 0 0 0 0 0 0 0 0 0 0 0 0 0 0 0 0 0 0 0 0 0 0 0
0 0 0 0 0 0 0 0 0 0 0 0 0 0 0 0 0 0 0 0 0 0 0 0 0 0 0 0 0 0 0 0 0 0 0 0 0 0 0 0 0 0 0 0
0 0 0 0 0 0 0 0 0 0 0 0 0 0 0 0 0 0 0 0 0 0 0 0 0 0 0 0 0 0 0 0 0 0 0 0 0 0 0 0 0 0 0 0
0 0 0 0 0 0 0 0 0 0 0 0 0 0 0 0 0 0 0 0 0 0 0 0 0 0 0 0 0 0 0 0 0 0 0 0 0 0 0 0 0 0 0 0
0 0 0 0 0 0 0 0 0 0 0 0 0 0 0 0 0 0 0 0 0 0 0 0 0 0 0 0 0 0 0 0 0 0 0 0 0 0 0 0 0 0 0 0
0 0 0 0 0 0 0 0 0 0 0 0 0 0 0 0 0 0 0 0 0 0 0 0 0 0 0 0 0 0 0 0 0 0 0 0 0 0 0 0 0 0 0 0
0 0 0 0 0 0 0 0 0 0 0 0 0 0 0 0 0 0 0 0 0 0 0 0 0 0 0 0 0 0 0 0 0 0 0 0 0 0 0 0 0 0 0 0
0 0 0 0 0 0 0 0 0 0 0 0 0 0 0 0 0 0 0 0 0 0 0 0 0 0 0 0 0 0 0 0 0 0 0 0 0 0 0 0 0 0 0 0
Wind_Speed
6 4 6 8 12 14 16 15 12 12 14 11 7 6 5 4 3 3 3 3 3 3 3 4 5 5 4 4 4 4 4 4 3 3 2 2 1 1 1 1 1 2 3 4
5 6 6 9 12 15 17 17 17 15 16 11 6 5 5 5 4 5 4 4 3 3 4 4 5 4 4 4 4 4 4 3 3 3 2 2 1 1 1 1 2 3 3 4
4 3 4 10 12 14 14 13 14 16 14 7 7 6 6 5 5 5 5 4 4 4 4 4 4 4 4 4 4 4 3 3 2 2 2 1 1 1 2 2 3 3 4 4
3 4 9 3 1 7 11 11 11 11 9 7 6 5 5 4 5 5 4 4 4 3 3 3 3 4 4 4 4 4 3 2 2 2 1 1 1 2 2 2 3 3 4 4
4 5 6 3 1 3 7 7 7 9 6 4 2 2 3 2 3 3 3 2 2 3 3 4 4 4 4 4 4 3 2 2 1 1 1 1 2 2 2 2 3 3 4 5
5 5 6 1 2 2 4 5 2 4 4 3 2 3 2 1 1 1 1 1 2 3 4 4 3 4 4 4 3 2 2 1 1 1 2 2 2 2 2 2 3 3 4 5
7 6 4 3 3 2 5 1 2 1 1 2 3 2 1 1 1 1 2 2 3 3 3 3 3 4 4 3 2 2 1 1 1 1 1 1 2 2 2 2 3 3 4 5
4 5 4 3 1 2 2 4 3 2 1 1 1 1 1 1 0 1 2 2 3 3 3 3 3 4 3 3 2 2 1 1 1 0 1 1 1 2 2 3 3 4 4 5
3 2 2 0 1 2 3 3 3 3 2 1 1 0 0 0 0 1 2 2 2 3 3 3 2 3 3 2 2 2 1 1 0 0 1 1 2 2 2 2 3 3 4 4
2 3 2 2 3 4 4 4 3 3 2 1 0 0 0 0 0 1 1 2 2 3 3 3 2 2 2 2 2 2 1 1 0 0 1 2 2 2 2 3 3 3 4 4
4 4 3 3 4 4 4 4 4 3 3 1 1 1 0 0 0 1 1 2 2 3 3 2 2 2 2 2 2 1 1 0 0 1 1 2 2 2 3 3 4 4 4 4
4 3 3 4 4 4 3 3 3 3 3 2 0 1 1 0 1 1 1 2 2 3 3 2 2 2 2 1 1 1 0 0 1 1 2 2 2 3 4 5 6 7 7 7
4 4 4 4 4 4 3 3 3 3 2 1 1 1 1 1 1 2 1 1 2 2 2 2 1 1 1 1 0 1 1 1 1 2 2 2 2 3 3 4 5 6 7 8
3 3 3 3 3 3 3 3 3 3 3 2 2 2 2 2 2 1 1 1 1 2 1 1 1 1 1 0 1 1 1 1 2 2 2 2 3 3 3 4 4 4 5 7
3 3 2 2 3 3 3 3 3 4 4 3 3 2 2 2 1 1 1 1 1 2 1 1 1 0 1 0 1 1 1 1 1 2 2 2 2 3 3 4 4 5 4 5
3 2 1 1 2 2 3 3 3 3 3 3 2 2 2 1 1 1 1 1 2 1 1 1 0 1 1 1 1 1 1 2 2 2 2 2 2 3 3 4 4 4 4 4
2 2 2 2 2 2 2 2 2 2 2 2 2 2 2 2 2 2 2 2 2 1 1 0 0 1 1 1 1 1 1 1 2 2 2 2 2 3 3 4 4 4 4 5
2 2 1 1 1 1 2 3 3 2 2 2 2 2 2 2 2 1 1 2 2 2 1 1 1 1 1 1 1 1 1 1 2 2 2 2 3 3 3 4 4 5 4 5
3 3 3 2 2 2 2 2 2 3 2 2 2 2 2 2 2 2 1 1 1 1 1 2 2 1 1 1 2 1 1 2 2 2 2 3 3 3 3 4 4 4 5 4
4 4 4 4 3 3 2 2 2 3 2 2 3 3 3 3 2 2 2 1 1 1 2 2 1 1 2 2 2 1 1 2 2 2 2 2 3 3 3 4 4 5 5 4
3 3 4 4 4 3 3 2 2 3 3 3 3 2 2 2 2 2 1 1 2 2 2 2 1 1 2 2 2 1 2 2 2 2 2 3 3 3 4 4 4 4 4 4
3 3 3 3 3 3 3 3 2 2 3 3 3 2 2 2 2 2 2 2 2 4 2 1 1 2 2 2 1 1 2 2 2 2 2 3 3 3 4 4 4 4 4 5
2 2 2 2 2 2 3 3 3 3 3 3 2 2 2 2 2 2 2 2 2 4 3 2 2 3 3 2 1 1 2 2 2 2 3 3 3 3 4 4 4 4 4 4
2 2 2 2 2 2 3 3 3 3 3 2 2 2 2 2 2 2 2 3 5 5 3 3 3 4 3 2 1 2 2 2 2 3 3 3 3 3 4 4 4 4 4 5
2 2 2 2 2 2 2 2 2 2 3 2 3 3 2 2 1 2 2 3 4 4 3 3 4 4 3 2 2 2 2 2 3 3 3 3 3 3 4 4 4 4 4 4
2 1 2 2 1 1 1 1 1 1 2 2 2 2 2 2 2 2 2 2 3 3 3 2 3 3 2 2 2 2 2 3 3 3 3 3 4 4 4 4 5 4 4 4
1 1 1 1 1 1 1 1 1 1 2 2 2 2 3 3 2 3 3 2 2 2 2 2 2 2 2 2 2 3 3 3 3 3 3 3 3 4 4 4 4 4 4 4
Wind_Direction
255 241 202 211 213 211 220 228 236 244 249 259 263 266 260 245 233 224 213 198 199 196 183 171 165 163 158 153 151 154 157 158 157 155 153 153 165 186 228 278 291 290 291 293
241 235 227 235 231 224 228 233 240 249 256 263 273 269 251 244 231 219 211 204 201 194 178 174 170 165 159 157 152 154 157 158 157 161 162 169 186 216 258 280 283 287 291 293
232 224 248 246 233 226 225 226 230 239 247 250 259 258 254 247 233 227 212 203 198 194 185 175 169 162 158 153 146 148 151 154 158 162 171 192 204 229 255 271 281 288 292 296
212 202 231 238 215 228 230 234 233 241 250 251 260 274 277 257 234 225 216 204 190 181 170 159 149 146 140 140 142 143 145 151 152 165 185 213 240 252 262 270 280 289 295 298
208 226 254 255 244 221 220 237 236 236 245 251 255 269 262 258 230 228 223 206 180 165 157 150 147 144 139 137 138 142 147 150 151 176 201 222 243 261 268 272 282 292 298 298
209 226 239 286 353 280 217 236 241 234 224 222 206 238 235 86 109 132 138 142 143 143 142 144 144 143 141 141 146 156 159 159 171 209 227 239 253 267 273 276 283 295 295 294
222 232 256 337 320 212 205 295 29 307 224 228 251 273 20 45 63 79 86 109 128 137 145 147 146 148 147 147 159 160 152 163 199 228 247 260 271 273 277 283 287 290 290 293
216 225 243 20 99 214 331 350 341 338 320 302 316 65 64 14 31 84 90 101 120 135 136 135 142 147 149 152 148 141 153 171 193 262 296 279 274 283 288 288 288 291 293 297
224 239 358 19 288 325 341 338 334 334 338 337 311 283 21 12 77 87 92 103 119 129 124 119 129 145 150 143 131 140 149 152 102 356 315 286 277 283 288 285 284 291 293 296
251 262 289 309 333 343 345 344 353 354 345 336 281 290 334 23 97 105 95 109 123 124 120 114 114 121 135 132 142 154 157 144 63 341 314 301 295 283 281 282 284 288 292 295
249 266 290 295 318 337 350 355 5 4 353 327 174 212 232 183 155 131 110 108 118 121 118 113 106 103 101 114 136 143 142 121 339 309 290 291 292 290 288 287 292 291 291 292
255 270 271 292 324 336 339 340 343 349 351 344 11 176 167 175 145 122 114 109 117 119 117 112 103 87 72 81 117 135 193 284 288 282 284 285 289 295 291 289 301 301 301 301
288 312 304 303 324 337 336 337 348 355 351 348 23 77 111 95 88 91 100 114 126 129 130 126 113 97 73 70 146 229 242 258 271 272 276 281 285 289 298 301 299 303 308 311
291 288 283 300 324 346 356 6 21 24 27 45 64 69 82 90 96 102 103 107 123 126 123 122 118 96 50 29 251 257 262 257 268 267 274 279 284 288 293 300 306 309 310 315
333 318 289 321 349 10 27 37 46 37 33 38 50 66 79 95 98 79 51 57 98 112 111 116 124 56 15 341 290 278 273 274 277 281 281 282 287 290 292 293 297 303 309 314
338 1 26 22 10 20 32 30 35 24 18 22 36 50 61 74 70 52 55 98 124 131 129 137 151 4 3 330 295 282 280 295 300 288 282 284 287 287 289 292 297 301 306 314
337 336 351 355 6 17 20 14 18 15 13 26 34 49 73 85 86 75 61 68 89 98 88 85 349 359 345 314 293 291 293 285 297 294 287 288 288 287 290 292 295 299 304 310
338 335 328 324 349 20 20 24 27 24 18 26 49 75 87 94 93 76 64 78 85 74 46 17 7 352 334 330 314 306 297 292 289 287 289 289 292 291 292 293 297 300 305 307
38 41 38 39 41 50 43 32 30 30 31 46 68 69 66 66 65 66 66 70 75 49 6 3 358 351 327 317 317 301 294 292 291 293 294 296 296 296 298 298 300 302 305 307
41 45 48 44 42 48 46 39 42 44 40 50 66 67 58 47 40 42 42 27 359 338 332 341 338 328 317 301 303 297 288 285 288 293 298 296 297 301 301 301 303 304 305 306
37 43 47 45 42 40 39 36 45 45 36 44 57 53 40 31 25 18 13 6 6 353 328 327 327 313 298 294 291 294 290 288 291 298 302 301 302 303 304 303 303 304 305 306
31 40 42 42 47 39 31 30 39 44 41 42 44 43 35 24 13 7 359 336 337 334 327 321 318 305 306 313 309 309 303 300 302 303 301 301 302 302 302 303 302 303 304 304
33 37 39 41 45 41 38 40 39 40 40 34 30 28 21 357 342 339 346 350 340 336 333 322 315 320 330 342 320 308 305 304 301 299 296 296 297 297 297 299 299 301 302 304
41 41 41 45 60 61 46 34 32 34 32 22 15 3 356 350 347 345 333 329 336 334 332 324 325 335 347 344 324 313 307 300 297 296 294 293 293 293 293 295 297 300 301 302
45 47 52 56 55 46 36 35 38 33 27 20 8 1 352 339 326 330 332 330 333 337 334 335 343 346 344 325 318 311 304 297 295 295 293 293 292 291 291 292 294 297 299 300
43 43 39 36 33 23 16 23 26 13 6 2 359 356 354 350 342 335 339 341 337 339 342 339 336 334 328 322 316 307 299 297 300 300 295 293 291 290 291 293 295 294 295 297
58 57 52 42 35 25 15 12 8 355 347 341 339 341 345 347 349 351 348 342 339 336 333 329 326 323 320 317 312 305 299 295 293 291 292 290 288 288 290 291 293 295 295 295